Weather History for HESN - May, 2014

Change the Weather History Date:

Monday, May 5, 2014

  Actual Average Record
Temperature  
Mean Temperature 94 °F -  
Max Temperature 108 °F 100 °F 111 °F (2011)
Min Temperature 79 °F 76 °F 59 °F (2005)
Cooling Degree Days 28    
Growing Degree Days 44 (Base 50)    
Moisture  
Dew Point 30 °F    
Average Humidity 9    
Maximum Humidity 16    
Minimum Humidity 4    
Precipitation  
Precipitation 0.00 in 0.00 in - ()
Sea Level Pressure  
Sea Level Pressure 29.73 in    
Wind  
Wind Speed 5 mph ()    
Max Wind Speed 23 mph    
Max Gust Speed -    
Visibility 4.9 miles    
Events      
Averages and records for this station are not official NWS values.
T = Trace of Precipitation, MM = Missing Value Source: Averaged Metar Reports

Daily Weather History Graph

Daily Weather History Graph

Search for Another Location

Airport or City:

Trip Planner

Search our weather history database for the weather conditions in past years. The results will help you decide how hot, cold, wet, or windy it might be!

Date:

Astronomy

May. 05, 2014 Rise Set
Actual Time 5:11 AM EET 6:19 PM EET
Civil Twilight 4:47 AM EET 6:43 PM EET
Nautical Twilight 4:19 AM EET 7:11 PM EET
Astronomical Twilight 3:50 AM EET 7:40 PM EET
Moon 10:12 AM EET (5/5) 11:31 PM EET (5/5)
Length of Visible Light 13h 55m
Length of Day
13h 07m
Waxing Crescent, 34% of the Moon is Illuminated
May 5
Waxing Crescent
May 7
First Quarter
May 14
Full
May 21
Last Quarter
May 28
New

Hourly Weather History & Observations

Time (EET) Temp. Dew Point Humidity Pressure Visibility Wind Dir Wind Speed Gust Speed Precip Events Conditions
12:00 AM 89.6 °F 35.6 °F 15% 29.77 in - NE 5.8 mph - N/A   Clear
1:00 AM 87.8 °F 33.8 °F 15% 29.74 in - NE 4.6 mph - N/A   Clear
2:00 AM 86 °F 33 °F 8% 29.70 in 6 mi NNE 3.5 mph - -  
2:00 AM 86.0 °F 33.8 °F 15% 29.74 in - NNE 3.5 mph - N/A   Clear
3:00 AM 84.2 °F 33.8 °F 16% 29.71 in - ENE 2.3 mph - N/A   Clear
4:00 AM 82.4 °F 30.2 °F 15% 29.74 in - NNW 4.6 mph - N/A   Clear
5:00 AM 81 °F 29 °F 8% 29.71 in 6 mi North 2.3 mph - -  
5:00 AM 80.6 °F 28.4 °F 15% 29.74 in - North 2.3 mph - N/A   Clear
6:00 AM 80.6 °F 28.4 °F 15% 29.74 in - North 5.8 mph - N/A   Clear
7:00 AM 82.4 °F 30.2 °F 15% 29.77 in - NNW 4.6 mph - N/A   Clear
8:00 AM 89 °F 32 °F 6% 29.74 in 6 mi NNE 6.9 mph - -  
8:00 AM 89.6 °F 32.0 °F 13% 29.77 in - NNE 6.9 mph - N/A   Clear
9:00 AM 93.2 °F 24.8 °F 9% 29.80 in - NNW 4.6 mph - N/A   Clear
10:00 AM 98.6 °F 32.0 °F 10% 29.77 in - ENE 4.6 mph - N/A   Clear
11:00 AM 103 °F 30 °F 4% 29.72 in 5 mi ESE 3.5 mph - -   Haze
11:00 AM 102.2 °F 30.2 °F 8% 29.77 in 5.0 mi ESE 3.5 mph - N/A   Unknown
12:00 PM 105.8 °F 28.4 °F 7% 29.74 in 5.0 mi SSW 3.5 mph - N/A   Unknown
1:00 PM 105.8 °F 28.4 °F 7% 29.71 in 5.0 mi South 6.9 mph - N/A   Unknown
2:00 PM 107 °F 30 °F 4% 29.65 in 5 mi NNW 4.6 mph - -   Haze
2:00 PM 107.6 °F 30.2 °F 7% 29.71 in 5.0 mi NNW 4.6 mph - N/A   Unknown
3:00 PM 107.6 °F 26.6 °F 6% 29.68 in 5.0 mi WNW 4.6 mph - N/A   Unknown
4:00 PM 107.6 °F 26.6 °F 6% 29.68 in 5.0 mi NNW 5.8 mph - N/A   Unknown
5:00 PM 106 °F 25 °F 4% 29.65 in 6 mi NW 6.9 mph - -  
5:00 PM 105.8 °F 24.8 °F 6% 29.68 in - NW 6.9 mph - N/A   Clear
6:00 PM - - N/A% 29.71 in - North - - N/A   Clear
7:00 PM 100.4 °F 24.8 °F 7% 29.71 in - North 8.1 mph - N/A   Clear
8:00 PM 100 °F 25 °F 4% 29.69 in 6 mi NNW 9.2 mph - -  
8:00 PM 100.4 °F 24.8 °F 7% 29.74 in - NNW 9.2 mph - N/A   Clear
9:00 PM 98.6 °F 30.2 °F 9% 29.74 in - WNW 15.0 mph - N/A   Clear
10:00 PM 96.8 °F 30.2 °F 10% 29.77 in 1.2 mi WNW 23.0 mph - N/A   Unknown
11:00 PM 94 °F 32 °F 5% 29.73 in 4 mi WNW 17.3 mph - -   Blowing Sand
11:00 PM 95.0 °F 32.0 °F 11% 29.77 in 3.7 mi WNW 17.3 mph - N/A   Unknown